Time,TemperatureF,DewpointF,PressureIn,WindDirection,WindDirectionDegrees,WindSpeedMPH,WindSpeedGustMPH,Humidity,HourlyPrecipIn,Conditions,Clouds,dailyrainin,SoftwareType,DateUTC
2013-03-01 00:02:00,39.2,20.1,-100.00,WNW,293,0.0,0.0,46,0.00,,,0.00,meteohub,2013-03-01 06:02:00,
2013-03-01 00:03:00,39.2,20.1,-100.00,WNW,293,0.0,0.0,46,0.00,,,0.00,meteohub,2013-03-01 06:03:00,
2013-03-01 00:11:00,39.0,20.5,-100.00,WNW,293,0.0,0.0,47,0.00,,,0.00,meteohub,2013-03-01 06:11:00,
2013-03-01 00:13:00,38.8,20.3,-100.00,WNW,293,0.0,0.0,47,0.00,,,0.00,meteohub,2013-03-01 06:13:00,
2013-03-01 00:17:00,38.8,20.3,-100.00,WNW,293,0.0,0.0,47,0.00,,,0.00,meteohub,2013-03-01 06:17:00,
2013-03-01 00:21:00,38.8,20.3,-100.00,WNW,293,0.0,0.0,47,0.00,,,0.00,meteohub,2013-03-01 06:21:00,
2013-03-01 00:25:00,38.5,19.9,-100.00,NW,315,0.0,0.0,47,0.00,,,0.00,meteohub,2013-03-01 06:25:00,
2013-03-01 00:27:00,38.5,19.9,-100.00,NW,315,0.0,0.0,47,0.00,,,0.00,meteohub,2013-03-01 06:27:00,
2013-03-01 00:31:00,38.5,19.9,-100.00,WNW,293,0.0,0.0,47,0.00,,,0.00,meteohub,2013-03-01 06:31:00,
2013-03-01 00:32:00,38.5,19.9,-100.00,WNW,293,0.0,0.0,47,0.00,,,0.00,meteohub,2013-03-01 06:32:00,
2013-03-01 00:35:00,38.3,19.8,-100.00,WNW,293,0.0,0.0,47,0.00,,,0.00,meteohub,2013-03-01 06:35:00,
2013-03-01 00:39:00,38.3,20.3,-100.00,WNW,293,0.0,0.0,48,0.00,,,0.00,meteohub,2013-03-01 06:39:00,
2013-03-01 00:41:00,38.3,20.3,-100.00,WNW,293,0.0,0.0,48,0.00,,,0.00,meteohub,2013-03-01 06:41:00,
2013-03-01 00:45:00,38.1,20.1,-100.00,NW,315,0.0,0.0,48,0.00,,,0.00,meteohub,2013-03-01 06:45:00,
2013-03-01 00:47:00,38.1,20.1,-100.00,NW,315,0.0,0.0,48,0.00,,,0.00,meteohub,2013-03-01 06:47:00,
2013-03-01 00:51:00,37.9,19.9,-100.00,NW,315,0.0,0.0,48,0.00,,,0.00,meteohub,2013-03-01 06:51:00,
2013-03-01 00:53:00,37.9,19.9,-100.00,NW,315,0.0,0.0,48,0.00,,,0.00,meteohub,2013-03-01 06:53:00,
2013-03-01 00:57:00,37.9,20.5,-100.00,NW,315,0.0,0.0,49,0.00,,,0.00,meteohub,2013-03-01 06:57:00,
2013-03-01 01:01:00,37.8,20.3,-100.00,NW,315,0.0,0.0,49,0.00,,,0.00,meteohub,2013-03-01 07:01:00,
2013-03-01 01:02:00,37.8,20.3,-100.00,NW,315,0.0,0.0,49,0.00,,,0.00,meteohub,2013-03-01 07:02:00,
2013-03-01 01:03:00,37.8,20.3,-100.00,NW,315,0.0,0.0,49,0.00,,,0.00,meteohub,2013-03-01 07:03:00,
2013-03-01 01:09:00,37.4,20.5,-100.00,NW,315,0.0,0.0,50,0.00,,,0.00,meteohub,2013-03-01 07:09:00,
2013-03-01 01:11:00,37.2,20.3,-100.00,NW,315,0.0,0.0,50,0.00,,,0.00,meteohub,2013-03-01 07:11:00,
2013-03-01 01:13:00,37.2,20.3,-100.00,NW,315,0.0,0.0,50,0.00,,,0.00,meteohub,2013-03-01 07:13:00,
2013-03-01 01:17:00,37.2,20.3,-100.00,NW,315,0.0,0.0,50,0.00,,,0.00,meteohub,2013-03-01 07:17:00,
2013-03-01 01:19:00,37.2,20.3,-100.00,NW,315,0.0,0.0,50,0.00,,,0.00,meteohub,2013-03-01 07:19:00,
2013-03-01 01:21:00,37.2,20.3,-100.00,NW,315,0.0,0.0,50,0.00,,,0.00,meteohub,2013-03-01 07:21:00,
2013-03-01 01:23:00,37.2,20.3,-100.00,NW,315,0.0,0.0,50,0.00,,,0.00,meteohub,2013-03-01 07:23:00,
2013-03-01 01:27:00,37.2,20.3,-100.00,NW,315,0.0,0.0,50,0.00,,,0.00,meteohub,2013-03-01 07:27:00,
2013-03-01 01:29:00,37.2,20.3,-100.00,NW,315,0.0,0.0,50,0.00,,,0.00,meteohub,2013-03-01 07:29:00,
2013-03-01 01:31:00,37.0,20.1,-100.00,WNW,293,0.0,0.0,50,0.00,,,0.00,meteohub,2013-03-01 07:31:00,
2013-03-01 01:34:00,37.0,20.1,-100.00,WNW,293,0.0,0.0,50,0.00,,,0.00,meteohub,2013-03-01 07:34:00,
2013-03-01 01:36:00,37.0,20.1,-100.00,WNW,293,0.0,0.0,50,0.00,,,0.00,meteohub,2013-03-01 07:36:00,
2013-03-01 01:40:00,36.9,19.9,-100.00,WNW,293,0.0,0.0,50,0.00,,,0.00,meteohub,2013-03-01 07:40:00,
2013-03-01 01:42:00,36.9,20.5,-100.00,WNW,293,0.0,0.0,51,0.00,,,0.00,meteohub,2013-03-01 07:42:00,
2013-03-01 01:44:00,36.9,20.5,-100.00,WNW,293,0.0,0.0,51,0.00,,,0.00,meteohub,2013-03-01 07:44:00,
2013-03-01 01:46:00,36.7,20.3,-100.00,WNW,293,0.0,0.0,51,0.00,,,0.00,meteohub,2013-03-01 07:46:00,
2013-03-01 01:48:00,36.7,20.3,-100.00,WNW,293,0.0,0.0,51,0.00,,,0.00,meteohub,2013-03-01 07:48:00,
2013-03-01 01:50:00,36.7,20.3,-100.00,WNW,293,0.0,0.0,51,0.00,,,0.00,meteohub,2013-03-01 07:50:00,
2013-03-01 01:54:00,36.5,20.1,-100.00,WNW,293,0.0,0.0,51,0.00,,,0.00,meteohub,2013-03-01 07:54:00,
2013-03-01 01:56:00,36.5,20.1,-100.00,WNW,293,0.0,0.0,51,0.00,,,0.00,meteohub,2013-03-01 07:56:00,
2013-03-01 01:58:00,36.3,19.9,-100.00,WNW,293,0.0,0.0,51,0.00,,,0.00,meteohub,2013-03-01 07:58:00,
2013-03-01 02:00:00,36.3,19.9,-100.00,WNW,293,0.0,0.0,51,0.00,,,0.00,meteohub,2013-03-01 08:00:00,
2013-03-01 02:02:00,36.3,19.9,-100.00,WNW,293,0.0,0.0,51,0.00,,,0.00,meteohub,2013-03-01 08:02:00,
2013-03-01 02:04:00,36.3,19.9,-100.00,WNW,293,0.0,0.0,51,0.00,,,0.00,meteohub,2013-03-01 08:04:00,
2013-03-01 02:06:00,36.3,19.9,-100.00,WNW,293,0.0,0.0,51,0.00,,,0.00,meteohub,2013-03-01 08:06:00,
2013-03-01 02:12:00,36.1,19.8,-100.00,WNW,293,0.0,0.0,51,0.00,,,0.00,meteohub,2013-03-01 08:12:00,
2013-03-01 02:14:00,36.1,19.8,-100.00,WNW,293,0.0,0.0,51,0.00,,,0.00,meteohub,2013-03-01 08:14:00,
2013-03-01 02:17:00,36.1,20.3,-100.00,WNW,293,0.0,0.0,52,0.00,,,0.00,meteohub,2013-03-01 08:17:00,
2013-03-01 02:18:00,36.1,20.3,-100.00,WNW,293,0.0,0.0,52,0.00,,,0.00,meteohub,2013-03-01 08:18:00,
2013-03-01 02:22:00,36.0,20.1,-100.00,WNW,293,0.0,0.0,52,0.00,,,0.00,meteohub,2013-03-01 08:22:00,
2013-03-01 02:24:00,35.8,19.9,-100.00,WNW,293,0.0,0.0,52,0.00,,,0.00,meteohub,2013-03-01 08:24:00,
2013-03-01 02:28:00,35.8,19.9,-100.00,WNW,293,0.0,0.0,52,0.00,,,0.00,meteohub,2013-03-01 08:28:00,
2013-03-01 02:30:00,35.8,19.9,-100.00,WNW,293,0.0,0.0,52,0.00,,,0.00,meteohub,2013-03-01 08:30:00,
2013-03-01 02:34:00,35.8,20.3,-100.00,WNW,293,0.0,0.0,53,0.00,,,0.00,meteohub,2013-03-01 08:34:00,
2013-03-01 02:36:00,35.6,20.1,-100.00,WNW,293,0.0,0.0,53,0.00,,,0.00,meteohub,2013-03-01 08:36:00,
2013-03-01 02:42:00,35.4,19.9,-100.00,WNW,293,0.0,0.0,53,0.00,,,0.00,meteohub,2013-03-01 08:42:00,
2013-03-01 02:48:00,35.4,19.9,-100.00,WNW,293,0.0,0.0,53,0.00,,,0.00,meteohub,2013-03-01 08:48:00,
2013-03-01 02:54:00,35.4,19.9,-100.00,WNW,293,0.0,0.0,53,0.00,,,0.00,meteohub,2013-03-01 08:54:00,
2013-03-01 02:56:00,35.4,19.9,-100.00,WNW,293,0.0,0.0,53,0.00,,,0.00,meteohub,2013-03-01 08:56:00,
2013-03-01 03:00:00,35.2,19.8,-100.00,WNW,293,0.0,0.0,53,0.00,,,0.00,meteohub,2013-03-01 09:00:00,
2013-03-01 03:02:00,35.2,19.8,-100.00,WNW,293,0.0,0.0,53,0.00,,,0.00,meteohub,2013-03-01 09:02:00,
2013-03-01 03:08:00,35.2,19.8,-100.00,WNW,293,0.0,0.0,53,0.00,,,0.00,meteohub,2013-03-01 09:08:00,
2013-03-01 03:10:00,35.1,20.1,-100.00,WNW,293,0.0,0.0,54,0.00,,,0.00,meteohub,2013-03-01 09:10:00,
2013-03-01 03:14:00,35.1,20.1,-100.00,WNW,293,0.0,0.0,54,0.00,,,0.00,meteohub,2013-03-01 09:14:00,
2013-03-01 03:17:00,34.9,19.9,-100.00,WNW,293,0.0,0.0,54,0.00,,,0.00,meteohub,2013-03-01 09:17:00,
2013-03-01 03:21:00,34.9,19.9,-100.00,WNW,293,0.0,0.0,54,0.00,,,0.00,meteohub,2013-03-01 09:21:00,
2013-03-01 03:23:00,34.9,19.9,-100.00,WNW,293,0.0,0.0,54,0.00,,,0.00,meteohub,2013-03-01 09:23:00,
2013-03-01 03:25:00,34.9,19.9,-100.00,WNW,293,0.0,0.0,54,0.00,,,0.00,meteohub,2013-03-01 09:25:00,
2013-03-01 03:29:00,34.9,19.9,-100.00,WNW,293,0.0,0.0,54,0.00,,,0.00,meteohub,2013-03-01 09:29:00,
2013-03-01 03:31:00,34.9,19.9,-100.00,WNW,293,0.0,0.0,54,0.00,,,0.00,meteohub,2013-03-01 09:31:00,
2013-03-01 03:32:00,34.9,19.9,-100.00,WNW,293,0.0,0.0,54,0.00,,,0.00,meteohub,2013-03-01 09:32:00,
2013-03-01 03:37:00,34.7,20.1,-100.00,WNW,293,0.0,0.0,55,0.00,,,0.00,meteohub,2013-03-01 09:37:00,
2013-03-01 03:39:00,34.7,20.1,-100.00,WNW,293,0.0,0.0,55,0.00,,,0.00,meteohub,2013-03-01 09:39:00,
2013-03-01 03:43:00,34.7,20.1,-100.00,WNW,293,0.0,0.0,55,0.00,,,0.00,meteohub,2013-03-01 09:43:00,
2013-03-01 03:45:00,34.7,20.1,-100.00,WNW,293,0.0,0.0,55,0.00,,,0.00,meteohub,2013-03-01 09:45:00,
2013-03-01 03:47:00,34.5,19.9,-100.00,WNW,293,0.0,0.0,55,0.00,,,0.00,meteohub,2013-03-01 09:47:00,
2013-03-01 03:53:00,34.5,19.9,-100.00,WNW,293,0.0,0.0,55,0.00,,,0.00,meteohub,2013-03-01 09:53:00,
2013-03-01 03:57:00,34.5,19.9,-100.00,WNW,293,0.0,0.0,55,0.00,,,0.00,meteohub,2013-03-01 09:57:00,
2013-03-01 03:59:00,34.5,19.9,-100.00,WNW,293,0.0,0.0,55,0.00,,,0.00,meteohub,2013-03-01 09:59:00,
2013-03-01 04:02:00,34.3,19.8,-100.00,WNW,293,0.0,0.0,55,0.00,,,0.00,meteohub,2013-03-01 10:02:00,
2013-03-01 04:03:00,34.3,19.8,-100.00,WNW,293,0.0,0.0,55,0.00,,,0.00,meteohub,2013-03-01 10:03:00,
2013-03-01 04:07:00,34.3,19.8,-100.00,WNW,293,0.0,0.0,55,0.00,,,0.00,meteohub,2013-03-01 10:07:00,
2013-03-01 04:09:00,34.3,19.8,-100.00,WNW,293,0.0,0.0,55,0.00,,,0.00,meteohub,2013-03-01 10:09:00,
2013-03-01 04:11:00,34.3,19.8,-100.00,WNW,293,0.0,0.0,55,0.00,,,0.00,meteohub,2013-03-01 10:11:00,
2013-03-01 04:13:00,34.3,19.8,-100.00,WNW,293,0.0,0.0,55,0.00,,,0.00,meteohub,2013-03-01 10:13:00,
2013-03-01 04:15:00,34.3,19.8,-100.00,WNW,293,0.0,0.0,55,0.00,,,0.00,meteohub,2013-03-01 10:15:00,
2013-03-01 04:17:00,34.2,19.8,-100.00,WNW,293,0.0,0.0,55,0.00,,,0.00,meteohub,2013-03-01 10:17:00,
2013-03-01 04:19:00,34.2,19.8,-100.00,WNW,293,0.0,0.0,55,0.00,,,0.00,meteohub,2013-03-01 10:19:00,
2013-03-01 04:21:00,34.2,19.8,-100.00,WNW,293,0.0,0.0,55,0.00,,,0.00,meteohub,2013-03-01 10:21:00,
2013-03-01 04:23:00,34.2,19.8,-100.00,WNW,293,0.0,0.0,55,0.00,,,0.00,meteohub,2013-03-01 10:23:00,
2013-03-01 04:25:00,34.0,19.9,-100.00,WNW,293,0.0,0.0,56,0.00,,,0.00,meteohub,2013-03-01 10:25:00,
2013-03-01 04:31:00,34.0,19.9,-100.00,WNW,293,0.0,0.0,56,0.00,,,0.00,meteohub,2013-03-01 10:31:00,
2013-03-01 04:32:00,34.0,19.9,-100.00,WNW,293,0.0,0.0,56,0.00,,,0.00,meteohub,2013-03-01 10:32:00,
2013-03-01 04:37:00,34.0,19.9,-100.00,WNW,293,0.0,0.0,56,0.00,,,0.00,meteohub,2013-03-01 10:37:00,
2013-03-01 04:43:00,33.6,19.6,-100.00,WNW,293,0.0,0.0,56,0.00,,,0.00,meteohub,2013-03-01 10:43:00,
2013-03-01 04:45:00,33.6,19.6,-100.00,WNW,293,0.0,0.0,56,0.00,,,0.00,meteohub,2013-03-01 10:45:00,
2013-03-01 04:51:00,33.6,19.6,-100.00,WNW,293,0.0,0.0,56,0.00,,,0.00,meteohub,2013-03-01 10:51:00,
2013-03-01 04:55:00,33.6,19.6,-100.00,WNW,293,0.0,0.0,56,0.00,,,0.00,meteohub,2013-03-01 10:55:00,
2013-03-01 04:57:00,33.6,19.9,-100.00,WNW,293,0.0,0.0,57,0.00,,,0.00,meteohub,2013-03-01 10:57:00,
2013-03-01 05:01:00,33.6,19.9,-100.00,WNW,293,0.0,0.0,57,0.00,,,0.00,meteohub,2013-03-01 11:01:00,
2013-03-01 05:02:00,33.6,19.9,-100.00,WNW,293,0.0,0.0,57,0.00,,,0.00,meteohub,2013-03-01 11:02:00,
2013-03-01 05:07:00,33.4,19.8,-100.00,WNW,293,0.0,0.0,57,0.00,,,0.00,meteohub,2013-03-01 11:07:00,
2013-03-01 05:09:00,33.4,19.8,-100.00,WNW,293,0.0,0.0,57,0.00,,,0.00,meteohub,2013-03-01 11:09:00,
2013-03-01 05:11:00,33.4,19.8,-100.00,WNW,293,0.0,0.0,57,0.00,,,0.00,meteohub,2013-03-01 11:11:00,
2013-03-01 05:15:00,33.4,19.8,-100.00,WNW,293,0.0,0.0,57,0.00,,,0.00,meteohub,2013-03-01 11:15:00,
2013-03-01 05:17:00,33.4,19.8,-100.00,WNW,293,0.0,0.0,57,0.00,,,0.00,meteohub,2013-03-01 11:17:00,
2013-03-01 05:22:00,33.3,19.8,-100.00,WNW,293,0.0,0.0,57,0.00,,,0.00,meteohub,2013-03-01 11:22:00,
2013-03-01 05:24:00,33.3,19.8,-100.00,WNW,293,0.0,0.0,57,0.00,,,0.00,meteohub,2013-03-01 11:24:00,
2013-03-01 05:28:00,33.3,19.8,-100.00,WNW,293,0.0,0.0,57,0.00,,,0.00,meteohub,2013-03-01 11:28:00,
2013-03-01 05:30:00,33.3,19.8,-100.00,WNW,293,0.0,0.0,57,0.00,,,0.00,meteohub,2013-03-01 11:30:00,
2013-03-01 05:32:00,33.3,19.8,-100.00,WNW,293,0.0,0.0,57,0.00,,,0.00,meteohub,2013-03-01 11:32:00,
2013-03-01 05:34:00,33.1,19.9,-100.00,WNW,293,0.0,0.0,58,0.00,,,0.00,meteohub,2013-03-01 11:34:00,
2013-03-01 05:38:00,33.1,19.9,-100.00,NW,315,0.0,0.0,58,0.00,,,0.00,meteohub,2013-03-01 11:38:00,
2013-03-01 05:40:00,33.1,19.9,-100.00,NW,315,0.0,0.0,58,0.00,,,0.00,meteohub,2013-03-01 11:40:00,
2013-03-01 05:44:00,33.1,19.9,-100.00,NW,315,0.0,0.0,58,0.00,,,0.00,meteohub,2013-03-01 11:44:00,
2013-03-01 05:46:00,33.1,19.9,-100.00,NW,315,0.0,0.0,58,0.00,,,0.00,meteohub,2013-03-01 11:46:00,
2013-03-01 05:50:00,33.1,19.9,-100.00,NW,315,0.0,0.0,58,0.00,,,0.00,meteohub,2013-03-01 11:50:00,
2013-03-01 05:52:00,32.9,19.8,-100.00,NW,315,0.0,0.0,58,0.00,,,0.00,meteohub,2013-03-01 11:52:00,
2013-03-01 05:56:00,32.9,19.8,-100.00,NW,315,0.0,0.0,58,0.00,,,0.00,meteohub,2013-03-01 11:56:00,
2013-03-01 05:58:00,32.9,19.8,-100.00,NW,315,0.0,0.0,58,0.00,,,0.00,meteohub,2013-03-01 11:58:00,
2013-03-01 06:04:00,32.9,19.8,-100.00,NW,315,0.0,0.0,58,0.00,,,0.00,meteohub,2013-03-01 12:04:00,
2013-03-01 06:06:00,32.7,19.6,-100.00,WNW,293,0.0,0.0,58,0.00,,,0.00,meteohub,2013-03-01 12:06:00,
2013-03-01 06:10:00,32.7,19.6,-100.00,WNW,293,0.0,0.0,58,0.00,,,0.00,meteohub,2013-03-01 12:10:00,
2013-03-01 06:16:00,32.7,19.6,-100.00,WNW,293,0.0,0.0,58,0.00,,,0.00,meteohub,2013-03-01 12:16:00,
2013-03-01 06:17:00,32.7,19.6,-100.00,WNW,293,0.0,0.0,58,0.00,,,0.00,meteohub,2013-03-01 12:17:00,
2013-03-01 06:18:00,32.7,19.6,-100.00,WNW,293,0.0,0.0,58,0.00,,,0.00,meteohub,2013-03-01 12:18:00,
2013-03-01 06:22:00,32.7,19.9,-100.00,WNW,293,0.0,0.0,59,0.00,,,0.00,meteohub,2013-03-01 12:22:00,
2013-03-01 06:26:00,32.7,19.9,-100.00,WNW,293,0.0,0.0,59,0.00,,,0.00,meteohub,2013-03-01 12:26:00,
2013-03-01 06:28:00,32.7,19.9,-100.00,WNW,293,0.0,0.0,59,0.00,,,0.00,meteohub,2013-03-01 12:28:00,
2013-03-01 06:30:00,32.5,19.8,-100.00,WNW,293,0.0,0.0,59,0.00,,,0.00,meteohub,2013-03-01 12:30:00,
2013-03-01 06:34:00,32.5,19.8,-100.00,WNW,293,0.0,0.0,59,0.00,,,0.00,meteohub,2013-03-01 12:34:00,
2013-03-01 06:37:00,32.5,19.8,-100.00,WNW,293,0.0,0.0,59,0.00,,,0.00,meteohub,2013-03-01 12:37:00,
2013-03-01 06:39:00,32.5,19.8,-100.00,WNW,293,0.0,0.0,59,0.00,,,0.00,meteohub,2013-03-01 12:39:00,
2013-03-01 06:43:00,32.5,19.8,-100.00,WNW,293,0.0,0.0,59,0.00,,,0.00,meteohub,2013-03-01 12:43:00,
2013-03-01 06:45:00,32.5,19.8,-100.00,WNW,293,0.0,0.0,59,0.00,,,0.00,meteohub,2013-03-01 12:45:00,
2013-03-01 06:47:00,32.5,19.8,-100.00,WNW,293,0.0,0.0,59,0.00,,,0.00,meteohub,2013-03-01 12:47:00,
2013-03-01 06:49:00,32.5,19.8,-100.00,WNW,293,0.0,0.0,59,0.00,,,0.00,meteohub,2013-03-01 12:49:00,
2013-03-01 06:53:00,32.5,20.1,-100.00,North,0,0.0,0.0,60,0.00,,,0.00,meteohub,2013-03-01 12:53:00,
2013-03-01 06:55:00,32.5,20.1,-100.00,North,0,0.0,0.0,60,0.00,,,0.00,meteohub,2013-03-01 12:55:00,
2013-03-01 06:59:00,32.4,19.9,-100.00,North,0,0.0,0.0,60,0.00,,,0.00,meteohub,2013-03-01 12:59:00,
2013-03-01 07:01:00,32.5,20.1,-100.00,North,0,0.0,0.0,60,0.00,,,0.00,meteohub,2013-03-01 13:01:00,
2013-03-01 07:05:00,32.5,20.1,-100.00,North,0,0.0,0.0,60,0.00,,,0.00,meteohub,2013-03-01 13:05:00,
2013-03-01 07:07:00,32.5,20.1,-100.00,North,0,0.0,0.0,60,0.00,,,0.00,meteohub,2013-03-01 13:07:00,
2013-03-01 07:09:00,32.5,20.1,-100.00,North,0,0.0,0.0,60,0.00,,,0.00,meteohub,2013-03-01 13:09:00,
2013-03-01 07:13:00,32.5,20.1,-100.00,North,0,0.0,0.0,60,0.00,,,0.00,meteohub,2013-03-01 13:13:00,
2013-03-01 07:15:00,32.4,19.9,-100.00,North,0,0.0,0.0,60,0.00,,,0.00,meteohub,2013-03-01 13:15:00,
2013-03-01 07:17:00,32.4,19.9,-100.00,North,0,0.0,0.0,60,0.00,,,0.00,meteohub,2013-03-01 13:17:00,
2013-03-01 07:23:00,32.9,20.8,-100.00,North,0,0.0,0.0,61,0.00,,,0.00,meteohub,2013-03-01 13:23:00,
2013-03-01 07:25:00,33.6,21.6,-100.00,North,0,0.0,0.0,61,0.00,,,0.00,meteohub,2013-03-01 13:25:00,
2013-03-01 07:27:00,33.6,21.6,-100.00,North,0,0.0,0.0,61,0.00,,,0.00,meteohub,2013-03-01 13:27:00,
2013-03-01 07:31:00,35.4,23.4,-100.00,North,0,0.0,0.0,61,0.00,,,0.00,meteohub,2013-03-01 13:31:00,
2013-03-01 07:32:00,35.4,23.4,-100.00,North,0,0.0,0.0,61,0.00,,,0.00,meteohub,2013-03-01 13:32:00,
2013-03-01 07:33:00,35.4,23.4,-100.00,North,0,0.0,0.0,61,0.00,,,0.00,meteohub,2013-03-01 13:33:00,
2013-03-01 07:37:00,36.5,23.2,-100.00,North,0,0.0,0.0,58,0.00,,,0.00,meteohub,2013-03-01 13:37:00,
2013-03-01 07:39:00,36.5,23.2,-100.00,North,0,0.0,0.0,58,0.00,,,0.00,meteohub,2013-03-01 13:39:00,
2013-03-01 07:41:00,36.5,22.6,-100.00,North,0,0.0,0.0,57,0.00,,,0.00,meteohub,2013-03-01 13:41:00,
2013-03-01 07:43:00,36.5,22.6,-100.00,North,0,0.0,0.0,57,0.00,,,0.00,meteohub,2013-03-01 13:43:00,
2013-03-01 07:45:00,36.5,22.6,-100.00,North,0,0.0,0.0,57,0.00,,,0.00,meteohub,2013-03-01 13:45:00,
2013-03-01 07:47:00,36.5,22.6,-100.00,North,0,0.0,0.0,57,0.00,,,0.00,meteohub,2013-03-01 13:47:00,
2013-03-01 07:51:00,36.7,22.8,-100.00,NNW,338,0.0,0.0,57,0.00,,,0.00,meteohub,2013-03-01 13:51:00,
2013-03-01 07:53:00,36.7,22.8,-100.00,NNW,338,0.0,0.0,57,0.00,,,0.00,meteohub,2013-03-01 13:53:00,
2013-03-01 07:57:00,37.2,23.4,-100.00,NNW,338,0.0,0.0,57,0.00,,,0.00,meteohub,2013-03-01 13:57:00,
2013-03-01 07:59:00,37.2,23.4,-100.00,NNW,338,0.0,0.0,57,0.00,,,0.00,meteohub,2013-03-01 13:59:00,
2013-03-01 08:03:00,37.6,23.7,-100.00,NNW,338,0.0,0.0,57,0.00,,,0.00,meteohub,2013-03-01 14:03:00,
2013-03-01 08:05:00,37.9,24.1,-100.00,North,0,0.0,0.0,57,0.00,,,0.00,meteohub,2013-03-01 14:05:00,
2013-03-01 08:11:00,38.5,24.1,-100.00,North,0,0.0,0.0,56,0.00,,,0.00,meteohub,2013-03-01 14:11:00,
2013-03-01 08:15:00,39.6,24.8,-100.00,WSW,248,0.0,0.0,55,0.00,,,0.00,meteohub,2013-03-01 14:15:00,
2013-03-01 08:17:00,39.9,25.0,-100.00,SW,225,0.0,0.0,55,0.00,,,0.00,meteohub,2013-03-01 14:17:00,
2013-03-01 08:19:00,40.3,25.3,-100.00,SW,225,0.0,0.0,55,0.00,,,0.00,meteohub,2013-03-01 14:19:00,
2013-03-01 08:21:00,40.8,25.9,-100.00,SSW,203,0.0,0.0,55,0.00,,,0.00,meteohub,2013-03-01 14:21:00,
2013-03-01 08:23:00,41.2,25.9,-100.00,South,180,0.0,0.0,54,0.00,,,0.00,meteohub,2013-03-01 14:23:00,
2013-03-01 08:27:00,41.9,26.1,-100.00,SE,135,0.0,0.0,53,0.00,,,0.00,meteohub,2013-03-01 14:27:00,
2013-03-01 08:29:00,42.3,25.9,-100.00,East,90,0.0,0.0,52,0.00,,,0.00,meteohub,2013-03-01 14:29:00,
2013-03-01 08:31:00,42.6,26.2,-100.00,ENE,68,1.0,0.0,52,0.00,,,0.00,meteohub,2013-03-01 14:31:00,
2013-03-01 08:33:00,42.6,26.2,-100.00,ENE,68,1.0,0.0,52,0.00,,,0.00,meteohub,2013-03-01 14:33:00,
2013-03-01 08:35:00,43.0,26.1,-100.00,East,90,0.0,1.0,51,0.00,,,0.00,meteohub,2013-03-01 14:35:00,
2013-03-01 08:39:00,43.5,26.6,-100.00,NE,45,0.0,1.0,51,0.00,,,0.00,meteohub,2013-03-01 14:39:00,
2013-03-01 08:41:00,43.5,26.6,-100.00,NE,45,0.0,1.0,51,0.00,,,0.00,meteohub,2013-03-01 14:41:00,
2013-03-01 08:43:00,43.5,26.6,-100.00,NE,45,0.0,1.0,51,0.00,,,0.00,meteohub,2013-03-01 14:43:00,
2013-03-01 08:49:00,45.3,27.3,-100.00,East,90,2.0,2.0,49,0.00,,,0.00,meteohub,2013-03-01 14:49:00,
2013-03-01 08:51:00,45.7,27.1,-100.00,ESE,113,1.0,1.0,48,0.00,,,0.00,meteohub,2013-03-01 14:51:00,
2013-03-01 08:53:00,46.0,27.5,-100.00,ESE,113,0.0,1.0,48,0.00,,,0.00,meteohub,2013-03-01 14:53:00,
2013-03-01 08:57:00,46.6,27.5,-100.00,ENE,68,0.0,2.0,47,0.00,,,0.00,meteohub,2013-03-01 14:57:00,
2013-03-01 08:59:00,46.6,27.0,-100.00,East,90,0.0,2.0,46,0.00,,,0.00,meteohub,2013-03-01 14:59:00,
2013-03-01 09:03:00,47.5,27.1,-100.00,ESE,113,1.0,2.0,45,0.00,,,0.00,meteohub,2013-03-01 15:03:00,
2013-03-01 09:05:00,48.0,27.7,-100.00,ESE,113,0.0,2.0,45,0.00,,,0.00,meteohub,2013-03-01 15:05:00,
2013-03-01 09:09:00,48.4,27.5,-100.00,SE,135,0.0,2.0,44,0.00,,,0.00,meteohub,2013-03-01 15:09:00,
2013-03-01 09:13:00,49.3,27.7,-100.00,ENE,68,0.0,1.0,43,0.00,,,0.00,meteohub,2013-03-01 15:13:00,
2013-03-01 09:17:00,50.4,28.2,-100.00,ENE,68,0.0,1.0,42,0.00,,,0.00,meteohub,2013-03-01 15:17:00,
2013-03-01 09:19:00,50.9,28.6,-100.00,ENE,68,1.0,1.0,42,0.00,,,0.00,meteohub,2013-03-01 15:19:00,
2013-03-01 09:21:00,51.4,28.6,-100.00,SSW,203,2.0,2.0,41,0.00,,,0.00,meteohub,2013-03-01 15:21:00,
2013-03-01 09:25:00,52.5,28.9,-100.00,SSE,158,0.0,2.0,40,0.00,,,0.00,meteohub,2013-03-01 15:25:00,
2013-03-01 09:28:00,52.9,29.3,-100.00,ENE,68,1.0,2.0,40,0.00,,,0.00,meteohub,2013-03-01 15:28:00,
2013-03-01 09:32:00,53.8,29.5,-100.00,East,90,0.0,2.0,39,0.00,,,0.00,meteohub,2013-03-01 15:32:00,
2013-03-01 09:36:00,54.7,30.2,-100.00,SSW,203,0.0,2.0,39,0.00,,,0.00,meteohub,2013-03-01 15:36:00,
2013-03-01 09:38:00,54.7,30.2,-100.00,SSW,203,0.0,2.0,39,0.00,,,0.00,meteohub,2013-03-01 15:38:00,
2013-03-01 09:40:00,55.2,30.0,-100.00,SSE,158,0.0,2.0,38,0.00,,,0.00,meteohub,2013-03-01 15:40:00,
2013-03-01 09:46:00,56.5,30.6,-100.00,NE,45,2.0,2.0,37,0.00,,,0.00,meteohub,2013-03-01 15:46:00,
2013-03-01 09:48:00,56.8,30.2,-100.00,ENE,68,1.0,2.0,36,0.00,,,0.00,meteohub,2013-03-01 15:48:00,
2013-03-01 09:52:00,57.4,30.0,-100.00,WSW,248,1.0,2.0,35,0.00,,,0.00,meteohub,2013-03-01 15:52:00,
2013-03-01 09:54:00,57.7,30.2,-100.00,ESE,113,0.0,2.0,35,0.00,,,0.00,meteohub,2013-03-01 15:54:00,
2013-03-01 09:56:00,58.3,30.7,-100.00,NE,45,1.0,2.0,35,0.00,,,0.00,meteohub,2013-03-01 15:56:00,
2013-03-01 10:00:00,59.0,30.7,-100.00,East,90,0.0,2.0,34,0.00,,,0.00,meteohub,2013-03-01 16:00:00,
2013-03-01 10:02:00,59.4,30.9,-100.00,East,90,1.0,2.0,34,0.00,,,0.00,meteohub,2013-03-01 16:02:00,
2013-03-01 10:08:00,60.3,31.1,-100.00,ENE,68,0.0,1.0,33,0.00,,,0.00,meteohub,2013-03-01 16:08:00,
2013-03-01 10:10:00,60.6,30.6,-100.00,SE,135,2.0,4.0,32,0.00,,,0.00,meteohub,2013-03-01 16:10:00,
2013-03-01 10:14:00,60.6,29.8,-100.00,WSW,248,1.0,4.0,31,0.00,,,0.00,meteohub,2013-03-01 16:14:00,
2013-03-01 10:17:00,61.2,31.1,-100.00,SSW,203,2.0,4.0,32,0.00,,,0.00,meteohub,2013-03-01 16:17:00,
2013-03-01 10:20:00,61.5,30.6,-100.00,East,90,4.0,4.0,31,0.00,,,0.00,meteohub,2013-03-01 16:20:00,
2013-03-01 10:22:00,61.9,30.0,-100.00,South,180,1.0,4.0,30,0.00,,,0.00,meteohub,2013-03-01 16:22:00,
2013-03-01 10:26:00,62.6,30.7,-100.00,SSE,158,0.0,4.0,30,0.00,,,0.00,meteohub,2013-03-01 16:26:00,
2013-03-01 10:28:00,62.8,31.6,-100.00,SSW,203,2.0,4.0,31,0.00,,,0.00,meteohub,2013-03-01 16:28:00,
2013-03-01 10:32:00,63.5,30.7,-100.00,East,90,0.0,4.0,29,0.00,,,0.00,meteohub,2013-03-01 16:32:00,
2013-03-01 10:34:00,63.7,30.7,-100.00,NE,45,2.0,4.0,29,0.00,,,0.00,meteohub,2013-03-01 16:34:00,
2013-03-01 10:38:00,63.9,30.9,-100.00,West,270,0.0,4.0,29,0.00,,,0.00,meteohub,2013-03-01 16:38:00,
2013-03-01 10:40:00,64.2,31.3,-100.00,SW,225,0.0,2.0,29,0.00,,,0.00,meteohub,2013-03-01 16:40:00,
2013-03-01 10:46:00,65.1,31.3,-100.00,North,0,0.0,2.0,28,0.00,,,0.00,meteohub,2013-03-01 16:46:00,
2013-03-01 10:47:00,65.1,31.3,-100.00,North,0,0.0,2.0,28,0.00,,,0.00,meteohub,2013-03-01 16:47:00,
2013-03-01 10:48:00,65.5,31.5,-100.00,NW,315,0.0,2.0,28,0.00,,,0.00,meteohub,2013-03-01 16:48:00,
2013-03-01 10:52:00,66.0,32.0,-100.00,South,180,1.0,2.0,28,0.00,,,0.00,meteohub,2013-03-01 16:52:00,
2013-03-01 10:54:00,66.4,32.4,-100.00,WSW,248,2.0,2.0,28,0.00,,,0.00,meteohub,2013-03-01 16:54:00,
2013-03-01 10:58:00,67.3,32.2,-100.00,SE,135,1.0,2.0,27,0.00,,,0.00,meteohub,2013-03-01 16:58:00,
2013-03-01 11:02:00,67.6,31.5,-100.00,West,270,1.0,2.0,26,0.00,,,0.00,meteohub,2013-03-01 17:02:00,
2013-03-01 11:06:00,68.2,32.0,-100.00,South,180,2.0,2.0,26,0.00,,,0.00,meteohub,2013-03-01 17:06:00,
2013-03-01 11:10:00,68.4,31.1,-100.00,SSE,158,2.0,2.0,25,0.00,,,0.00,meteohub,2013-03-01 17:10:00,
2013-03-01 11:12:00,68.5,31.3,-100.00,SSE,158,2.0,2.0,25,0.00,,,0.00,meteohub,2013-03-01 17:12:00,
2013-03-01 11:14:00,68.7,30.4,-100.00,SSE,158,2.0,2.0,24,0.00,,,0.00,meteohub,2013-03-01 17:14:00,
2013-03-01 11:18:00,69.3,30.9,-100.00,West,270,0.0,2.0,24,0.00,,,0.00,meteohub,2013-03-01 17:18:00,
2013-03-01 11:22:00,69.3,30.9,-100.00,SE,135,1.0,2.0,24,0.00,,,0.00,meteohub,2013-03-01 17:22:00,
2013-03-01 11:24:00,69.6,31.3,-100.00,SSW,203,0.0,2.0,24,0.00,,,0.00,meteohub,2013-03-01 17:24:00,
2013-03-01 11:28:00,70.3,31.8,-100.00,WNW,293,1.0,2.0,24,0.00,,,0.00,meteohub,2013-03-01 17:28:00,
2013-03-01 11:30:00,70.9,32.4,-100.00,NW,315,2.0,2.0,24,0.00,,,0.00,meteohub,2013-03-01 17:30:00,
2013-03-01 11:34:00,71.4,31.6,-100.00,North,0,1.0,2.0,23,0.00,,,0.00,meteohub,2013-03-01 17:34:00,
2013-03-01 11:40:00,72.3,31.3,-100.00,South,180,2.0,4.0,22,0.00,,,0.00,meteohub,2013-03-01 17:40:00,
2013-03-01 11:42:00,72.3,30.2,-100.00,South,180,2.0,4.0,21,0.00,,,0.00,meteohub,2013-03-01 17:42:00,
2013-03-01 11:44:00,72.5,31.5,-100.00,SW,225,3.0,4.0,22,0.00,,,0.00,meteohub,2013-03-01 17:44:00,
2013-03-01 11:46:00,72.7,31.6,-100.00,South,180,5.0,5.0,22,0.00,,,0.00,meteohub,2013-03-01 17:46:00,
2013-03-01 11:50:00,72.7,30.6,-100.00,West,270,2.0,5.0,21,0.00,,,0.00,meteohub,2013-03-01 17:50:00,
2013-03-01 11:52:00,73.0,30.7,-100.00,WNW,293,2.0,5.0,21,0.00,,,0.00,meteohub,2013-03-01 17:52:00,
2013-03-01 11:54:00,73.0,30.7,-100.00,WNW,293,2.0,5.0,21,0.00,,,0.00,meteohub,2013-03-01 17:54:00,
2013-03-01 11:59:00,73.2,30.9,-100.00,WSW,248,1.0,5.0,21,0.00,,,0.00,meteohub,2013-03-01 17:59:00,
2013-03-01 12:01:00,73.4,28.6,-100.00,WSW,248,1.0,5.0,19,0.00,,,0.00,meteohub,2013-03-01 18:01:00,
2013-03-01 12:02:00,73.4,28.6,-100.00,SE,135,0.0,5.0,19,0.00,,,0.00,meteohub,2013-03-01 18:02:00,
2013-03-01 12:05:00,73.4,28.6,-100.00,South,180,2.0,5.0,19,0.00,,,0.00,meteohub,2013-03-01 18:05:00,
2013-03-01 12:07:00,73.4,28.6,-100.00,SE,135,0.0,4.0,19,0.00,,,0.00,meteohub,2013-03-01 18:07:00,
2013-03-01 12:09:00,73.6,28.8,-100.00,West,270,3.0,4.0,19,0.00,,,0.00,meteohub,2013-03-01 18:09:00,
2013-03-01 12:15:00,73.8,28.9,-100.00,ESE,113,1.0,3.0,19,0.00,,,0.00,meteohub,2013-03-01 18:15:00,
2013-03-01 12:17:00,73.8,28.9,-100.00,ESE,113,1.0,3.0,19,0.00,,,0.00,meteohub,2013-03-01 18:17:00,
2013-03-01 12:19:00,74.1,29.3,-100.00,ENE,68,0.0,3.0,19,0.00,,,0.00,meteohub,2013-03-01 18:19:00,
2013-03-01 12:21:00,74.3,29.3,-100.00,NNE,23,2.0,3.0,19,0.00,,,0.00,meteohub,2013-03-01 18:21:00,
2013-03-01 12:25:00,74.5,30.7,-100.00,WNW,293,3.0,3.0,20,0.00,,,0.00,meteohub,2013-03-01 18:25:00,
2013-03-01 12:27:00,74.8,31.1,-100.00,WNW,293,3.0,3.0,20,0.00,,,0.00,meteohub,2013-03-01 18:27:00,
2013-03-01 12:31:00,75.0,28.6,-100.00,WNW,293,2.0,3.0,18,0.00,,,0.00,meteohub,2013-03-01 18:31:00,
2013-03-01 12:32:00,75.4,28.9,-100.00,NNW,338,2.0,3.0,18,0.00,,,0.00,meteohub,2013-03-01 18:32:00,
2013-03-01 12:33:00,75.4,28.9,-100.00,NNW,338,2.0,3.0,18,0.00,,,0.00,meteohub,2013-03-01 18:33:00,
2013-03-01 12:35:00,75.4,28.9,-100.00,NE,45,2.0,3.0,18,0.00,,,0.00,meteohub,2013-03-01 18:35:00,
2013-03-01 12:37:00,75.6,29.1,-100.00,West,270,3.0,3.0,18,0.00,,,0.00,meteohub,2013-03-01 18:37:00,
2013-03-01 12:39:00,75.6,27.7,-100.00,NE,45,0.0,3.0,17,0.00,,,0.00,meteohub,2013-03-01 18:39:00,
2013-03-01 12:41:00,75.4,28.9,-100.00,NW,315,3.0,3.0,18,0.00,,,0.00,meteohub,2013-03-01 18:41:00,
2013-03-01 12:47:00,75.4,28.9,-100.00,West,270,1.0,3.0,18,0.00,,,0.00,meteohub,2013-03-01 18:47:00,
2013-03-01 12:53:00,75.9,29.3,-100.00,NNW,338,4.0,4.0,18,0.00,,,0.00,meteohub,2013-03-01 18:53:00,
2013-03-01 12:55:00,75.9,29.3,-100.00,ENE,68,0.0,4.0,18,0.00,,,0.00,meteohub,2013-03-01 18:55:00,
2013-03-01 12:59:00,76.1,28.0,-100.00,West,270,0.0,4.0,17,0.00,,,0.00,meteohub,2013-03-01 18:59:00,
2013-03-01 13:02:00,76.1,29.5,-100.00,West,270,4.0,4.0,18,0.00,,,0.00,meteohub,2013-03-01 19:02:00,
2013-03-01 13:03:00,76.1,28.0,-100.00,West,270,3.0,4.0,17,0.00,,,0.00,meteohub,2013-03-01 19:03:00,
2013-03-01 13:07:00,75.9,28.0,-100.00,West,270,4.0,4.0,17,0.00,,,0.00,meteohub,2013-03-01 19:07:00,
2013-03-01 13:09:00,75.9,28.0,-100.00,West,270,4.0,4.0,17,0.00,,,0.00,meteohub,2013-03-01 19:09:00,
2013-03-01 13:11:00,75.7,27.9,-100.00,West,270,3.0,4.0,17,0.00,,,0.00,meteohub,2013-03-01 19:11:00,
2013-03-01 13:13:00,75.4,27.5,-100.00,NW,315,4.0,4.0,17,0.00,,,0.00,meteohub,2013-03-01 19:13:00,
2013-03-01 13:17:00,74.5,26.8,-100.00,WSW,248,4.0,4.0,17,0.00,,,0.00,meteohub,2013-03-01 19:17:00,
2013-03-01 13:21:00,74.5,26.8,-100.00,WNW,293,2.0,5.0,17,0.00,,,0.00,meteohub,2013-03-01 19:21:00,
2013-03-01 13:23:00,74.5,26.8,-100.00,NNE,23,0.0,5.0,17,0.00,,,0.00,meteohub,2013-03-01 19:23:00,
2013-03-01 13:25:00,74.5,26.8,-100.00,NE,45,3.0,5.0,17,0.00,,,0.00,meteohub,2013-03-01 19:25:00,
2013-03-01 13:27:00,74.8,27.1,-100.00,WSW,248,3.0,5.0,17,0.00,,,0.00,meteohub,2013-03-01 19:27:00,
2013-03-01 13:31:00,75.0,27.3,-100.00,North,0,1.0,5.0,17,0.00,,,0.00,meteohub,2013-03-01 19:31:00,
2013-03-01 13:33:00,75.0,27.3,-100.00,West,270,3.0,5.0,17,0.00,,,0.00,meteohub,2013-03-01 19:33:00,
2013-03-01 13:37:00,75.4,27.5,-100.00,WNW,293,5.0,5.0,17,0.00,,,0.00,meteohub,2013-03-01 19:37:00,
2013-03-01 13:39:00,75.4,26.1,-100.00,WNW,293,4.0,4.0,16,0.00,,,0.00,meteohub,2013-03-01 19:39:00,
2013-03-01 13:45:00,75.4,27.5,-100.00,WNW,293,8.0,8.0,17,0.00,,,0.00,meteohub,2013-03-01 19:45:00,
2013-03-01 13:47:00,75.4,26.1,-100.00,NNW,338,3.0,8.0,16,0.00,,,0.00,meteohub,2013-03-01 19:47:00,
2013-03-01 13:49:00,75.2,27.3,-100.00,WNW,293,5.0,8.0,17,0.00,,,0.00,meteohub,2013-03-01 19:49:00,
2013-03-01 13:53:00,75.4,27.5,-100.00,WNW,293,4.0,8.0,17,0.00,,,0.00,meteohub,2013-03-01 19:53:00,
2013-03-01 13:57:00,75.7,27.9,-100.00,NW,315,5.0,8.0,17,0.00,,,0.00,meteohub,2013-03-01 19:57:00,
2013-03-01 13:59:00,75.7,26.4,-100.00,WNW,293,4.0,8.0,16,0.00,,,0.00,meteohub,2013-03-01 19:59:00,
2013-03-01 14:01:00,75.7,26.4,-100.00,WNW,293,6.0,8.0,16,0.00,,,0.00,meteohub,2013-03-01 20:01:00,
2013-03-01 14:05:00,75.9,26.4,-100.00,West,270,2.0,6.0,16,0.00,,,0.00,meteohub,2013-03-01 20:05:00,
2013-03-01 14:09:00,76.1,26.6,-100.00,NE,45,2.0,6.0,16,0.00,,,0.00,meteohub,2013-03-01 20:09:00,
2013-03-01 14:11:00,76.3,26.8,-100.00,North,0,3.0,6.0,16,0.00,,,0.00,meteohub,2013-03-01 20:11:00,
2013-03-01 14:13:00,76.5,27.0,-100.00,WNW,293,6.0,6.0,16,0.00,,,0.00,meteohub,2013-03-01 20:13:00,
2013-03-01 14:15:00,76.3,26.8,-100.00,North,0,1.0,6.0,16,0.00,,,0.00,meteohub,2013-03-01 20:15:00,
2013-03-01 14:21:00,76.3,26.8,-100.00,WNW,293,4.0,6.0,16,0.00,,,0.00,meteohub,2013-03-01 20:21:00,
2013-03-01 14:23:00,76.3,26.8,-100.00,West,270,3.0,6.0,16,0.00,,,0.00,meteohub,2013-03-01 20:23:00,
2013-03-01 14:27:00,76.3,26.8,-100.00,NNW,338,5.0,6.0,16,0.00,,,0.00,meteohub,2013-03-01 20:27:00,
2013-03-01 14:31:00,76.3,26.8,-100.00,West,270,4.0,10.0,16,0.00,,,0.00,meteohub,2013-03-01 20:31:00,
2013-03-01 14:33:00,76.3,26.8,-100.00,West,270,2.0,10.0,16,0.00,,,0.00,meteohub,2013-03-01 20:33:00,
2013-03-01 14:35:00,76.3,26.8,-100.00,West,270,3.0,10.0,16,0.00,,,0.00,meteohub,2013-03-01 20:35:00,
2013-03-01 14:39:00,76.1,26.6,-100.00,WNW,293,3.0,10.0,16,0.00,,,0.00,meteohub,2013-03-01 20:39:00,
2013-03-01 14:45:00,76.1,26.6,-100.00,NNE,23,4.0,4.0,16,0.00,,,0.00,meteohub,2013-03-01 20:45:00,
2013-03-01 14:47:00,76.1,26.6,-100.00,NNE,23,4.0,4.0,16,0.00,,,0.00,meteohub,2013-03-01 20:47:00,
2013-03-01 14:48:00,76.1,26.6,-100.00,NW,315,3.0,4.0,16,0.00,,,0.00,meteohub,2013-03-01 20:48:00,
2013-03-01 14:50:00,76.1,26.6,-100.00,NW,315,3.0,4.0,16,0.00,,,0.00,meteohub,2013-03-01 20:50:00,
2013-03-01 14:56:00,75.9,26.4,-100.00,SE,135,2.0,6.0,16,0.00,,,0.00,meteohub,2013-03-01 20:56:00,
2013-03-01 14:58:00,75.7,26.4,-100.00,NNW,338,2.0,6.0,16,0.00,,,0.00,meteohub,2013-03-01 20:58:00,
2013-03-01 15:02:00,75.6,26.2,-100.00,SE,135,4.0,6.0,16,0.00,,,0.00,meteohub,2013-03-01 21:02:00,
2013-03-01 15:04:00,75.4,26.1,-100.00,ENE,68,3.0,6.0,16,0.00,,,0.00,meteohub,2013-03-01 21:04:00,
2013-03-01 15:06:00,75.0,25.7,-100.00,West,270,2.0,7.0,16,0.00,,,0.00,meteohub,2013-03-01 21:06:00,
2013-03-01 15:10:00,75.0,25.7,-100.00,WNW,293,3.0,7.0,16,0.00,,,0.00,meteohub,2013-03-01 21:10:00,
2013-03-01 15:12:00,74.8,25.7,-100.00,West,270,2.0,7.0,16,0.00,,,0.00,meteohub,2013-03-01 21:12:00,
2013-03-01 15:14:00,74.8,25.7,-100.00,NW,315,2.0,7.0,16,0.00,,,0.00,meteohub,2013-03-01 21:14:00,
2013-03-01 15:17:00,74.8,25.7,-100.00,East,90,2.0,7.0,16,0.00,,,0.00,meteohub,2013-03-01 21:17:00,
2013-03-01 15:22:00,74.8,25.7,-100.00,NW,315,3.0,4.0,16,0.00,,,0.00,meteohub,2013-03-01 21:22:00,
2013-03-01 15:24:00,74.8,25.7,-100.00,NW,315,3.0,4.0,16,0.00,,,0.00,meteohub,2013-03-01 21:24:00,
2013-03-01 15:28:00,74.5,25.3,-100.00,North,0,3.0,3.0,16,0.00,,,0.00,meteohub,2013-03-01 21:28:00,
2013-03-01 15:30:00,74.5,25.3,-100.00,WNW,293,7.0,7.0,16,0.00,,,0.00,meteohub,2013-03-01 21:30:00,
2013-03-01 15:32:00,74.5,25.3,-100.00,WNW,293,4.0,4.0,16,0.00,,,0.00,meteohub,2013-03-01 21:32:00,
2013-03-01 15:38:00,74.1,25.0,-100.00,NNW,338,7.0,7.0,16,0.00,,,0.00,meteohub,2013-03-01 21:38:00,
2013-03-01 15:40:00,73.9,25.0,-100.00,West,270,1.0,7.0,16,0.00,,,0.00,meteohub,2013-03-01 21:40:00,
2013-03-01 15:42:00,73.6,24.6,-100.00,WNW,293,7.0,7.0,16,0.00,,,0.00,meteohub,2013-03-01 21:42:00,
2013-03-01 15:44:00,73.6,24.6,-100.00,NW,315,4.0,7.0,16,0.00,,,0.00,meteohub,2013-03-01 21:44:00,
2013-03-01 15:46:00,73.2,24.3,-100.00,NNW,338,1.0,7.0,16,0.00,,,0.00,meteohub,2013-03-01 21:46:00,
2013-03-01 15:47:00,73.2,24.3,-100.00,NNW,338,1.0,7.0,16,0.00,,,0.00,meteohub,2013-03-01 21:47:00,
2013-03-01 15:50:00,73.2,24.3,-100.00,NNE,23,2.0,7.0,16,0.00,,,0.00,meteohub,2013-03-01 21:50:00,
2013-03-01 15:52:00,73.2,24.3,-100.00,NW,315,3.0,7.0,16,0.00,,,0.00,meteohub,2013-03-01 21:52:00,
2013-03-01 15:54:00,73.2,24.3,-100.00,West,270,4.0,7.0,16,0.00,,,0.00,meteohub,2013-03-01 21:54:00,
2013-03-01 15:58:00,73.0,24.3,-100.00,WNW,293,4.0,7.0,16,0.00,,,0.00,meteohub,2013-03-01 21:58:00,
2013-03-01 16:00:00,73.0,24.3,-100.00,WNW,293,4.0,4.0,16,0.00,,,0.00,meteohub,2013-03-01 22:00:00,
2013-03-01 16:04:00,72.3,23.5,-100.00,WNW,293,6.0,6.0,16,0.00,,,0.00,meteohub,2013-03-01 22:04:00,
2013-03-01 16:06:00,72.3,23.5,-100.00,WNW,293,6.0,7.0,16,0.00,,,0.00,meteohub,2013-03-01 22:06:00,
2013-03-01 16:08:00,72.3,22.1,-100.00,WNW,293,6.0,7.0,15,0.00,,,0.00,meteohub,2013-03-01 22:08:00,
2013-03-01 16:12:00,71.6,23.0,-100.00,NNW,338,3.0,7.0,16,0.00,,,0.00,meteohub,2013-03-01 22:12:00,
2013-03-01 16:14:00,71.4,22.8,-100.00,West,270,7.0,7.0,16,0.00,,,0.00,meteohub,2013-03-01 22:14:00,
2013-03-01 16:17:00,71.4,22.8,-100.00,WNW,293,6.0,7.0,16,0.00,,,0.00,meteohub,2013-03-01 22:17:00,
2013-03-01 16:20:00,71.2,22.8,-100.00,West,270,2.0,15.0,16,0.00,,,0.00,meteohub,2013-03-01 22:20:00,
2013-03-01 16:22:00,70.9,22.5,-100.00,West,270,6.0,15.0,16,0.00,,,0.00,meteohub,2013-03-01 22:22:00,
2013-03-01 16:26:00,70.5,19.0,-100.00,SW,225,6.0,15.0,14,0.00,,,0.00,meteohub,2013-03-01 22:26:00,
2013-03-01 16:28:00,70.3,17.2,-100.00,West,270,7.0,15.0,13,0.00,,,0.00,meteohub,2013-03-01 22:28:00,
2013-03-01 16:30:00,70.0,16.9,-100.00,NNW,338,6.0,15.0,13,0.00,,,0.00,meteohub,2013-03-01 22:30:00,
2013-03-01 16:32:00,69.6,16.5,-100.00,WSW,248,4.0,15.0,13,0.00,,,0.00,meteohub,2013-03-01 22:32:00,
2013-03-01 16:36:00,69.6,16.5,-100.00,NW,315,5.0,8.0,13,0.00,,,0.00,meteohub,2013-03-01 22:36:00,
2013-03-01 16:38:00,69.1,16.2,-100.00,NW,315,6.0,8.0,13,0.00,,,0.00,meteohub,2013-03-01 22:38:00,
2013-03-01 16:40:00,69.1,16.2,-100.00,NW,315,6.0,8.0,13,0.00,,,0.00,meteohub,2013-03-01 22:40:00,
2013-03-01 16:46:00,68.9,16.0,-100.00,WNW,293,2.0,6.0,13,0.00,,,0.00,meteohub,2013-03-01 22:46:00,
2013-03-01 16:50:00,68.4,15.6,-100.00,NNW,338,13.0,13.0,13,0.00,,,0.00,meteohub,2013-03-01 22:50:00,
2013-03-01 16:52:00,68.2,15.4,-100.00,ESE,113,3.0,9.0,13,0.00,,,0.00,meteohub,2013-03-01 22:52:00,
2013-03-01 16:54:00,67.8,15.1,-100.00,SE,135,5.0,9.0,13,0.00,,,0.00,meteohub,2013-03-01 22:54:00,
2013-03-01 17:00:00,67.3,14.7,-100.00,NE,45,1.0,13.0,13,0.00,,,0.00,meteohub,2013-03-01 23:00:00,
2013-03-01 17:02:00,67.3,14.7,-100.00,NE,45,1.0,13.0,13,0.00,,,0.00,meteohub,2013-03-01 23:02:00,
2013-03-01 17:06:00,66.9,16.2,-100.00,WNW,293,4.0,13.0,14,0.00,,,0.00,meteohub,2013-03-01 23:06:00,
2013-03-01 17:08:00,66.7,14.4,-100.00,NNE,23,7.0,13.0,13,0.00,,,0.00,meteohub,2013-03-01 23:08:00,
2013-03-01 17:12:00,66.6,17.4,-100.00,ESE,113,6.0,6.0,15,0.00,,,0.00,meteohub,2013-03-01 23:12:00,
2013-03-01 17:14:00,66.4,17.2,-100.00,WSW,248,4.0,5.0,15,0.00,,,0.00,meteohub,2013-03-01 23:14:00,
2013-03-01 17:18:00,66.0,15.4,-100.00,WNW,293,6.0,7.0,14,0.00,,,0.00,meteohub,2013-03-01 23:18:00,
2013-03-01 17:20:00,65.8,15.3,-100.00,SSW,203,1.0,7.0,14,0.00,,,0.00,meteohub,2013-03-01 23:20:00,
2013-03-01 17:24:00,65.5,15.1,-100.00,ESE,113,2.0,7.0,14,0.00,,,0.00,meteohub,2013-03-01 23:24:00,
2013-03-01 17:26:00,65.3,16.5,-100.00,WNW,293,4.0,7.0,15,0.00,,,0.00,meteohub,2013-03-01 23:26:00,
2013-03-01 17:31:00,65.1,17.8,-100.00,WNW,293,8.0,8.0,16,0.00,,,0.00,meteohub,2013-03-01 23:31:00,
2013-03-01 17:32:00,65.1,17.8,-100.00,WNW,293,8.0,8.0,16,0.00,,,0.00,meteohub,2013-03-01 23:32:00,
2013-03-01 17:37:00,64.6,17.4,-100.00,WNW,293,6.0,8.0,16,0.00,,,0.00,meteohub,2013-03-01 23:37:00,
2013-03-01 17:39:00,64.6,17.4,-100.00,WNW,293,2.0,8.0,16,0.00,,,0.00,meteohub,2013-03-01 23:39:00,
2013-03-01 17:45:00,64.2,17.1,-100.00,WNW,293,4.0,8.0,16,0.00,,,0.00,meteohub,2013-03-01 23:45:00,
2013-03-01 17:47:00,64.2,17.1,-100.00,WNW,293,11.0,11.0,16,0.00,,,0.00,meteohub,2013-03-01 23:47:00,
2013-03-01 17:53:00,63.7,18.0,-100.00,WNW,293,6.0,11.0,17,0.00,,,0.00,meteohub,2013-03-01 23:53:00,
2013-03-01 17:55:00,63.7,18.0,-100.00,WNW,293,3.0,11.0,17,0.00,,,0.00,meteohub,2013-03-01 23:55:00,
2013-03-01 17:59:00,63.3,17.8,-100.00,West,270,3.0,11.0,17,0.00,,,0.00,meteohub,2013-03-01 23:59:00,
2013-03-01 18:02:00,63.1,17.6,-100.00,North,0,4.0,11.0,17,0.00,,,0.00,meteohub,2013-03-02 00:02:00,
2013-03-01 18:03:00,63.1,17.6,-100.00,NNW,338,3.0,11.0,17,0.00,,,0.00,meteohub,2013-03-02 00:03:00,
2013-03-01 18:07:00,62.8,17.2,-100.00,WNW,293,6.0,6.0,17,0.00,,,0.00,meteohub,2013-03-02 00:07:00,
2013-03-01 18:09:00,62.8,17.2,-100.00,West,270,4.0,6.0,17,0.00,,,0.00,meteohub,2013-03-02 00:09:00,
2013-03-01 18:11:00,62.8,17.2,-100.00,West,270,2.0,6.0,17,0.00,,,0.00,meteohub,2013-03-02 00:11:00,
2013-03-01 18:13:00,62.4,17.1,-100.00,West,270,4.0,6.0,17,0.00,,,0.00,meteohub,2013-03-02 00:13:00,
2013-03-01 18:15:00,62.4,17.1,-100.00,East,90,1.0,6.0,17,0.00,,,0.00,meteohub,2013-03-02 00:15:00,
2013-03-01 18:17:00,62.4,18.3,-100.00,NW,315,2.0,6.0,18,0.00,,,0.00,meteohub,2013-03-02 00:17:00,
2013-03-01 18:23:00,61.9,18.0,-100.00,West,270,2.0,6.0,18,0.00,,,0.00,meteohub,2013-03-02 00:23:00,
2013-03-01 18:25:00,61.9,18.0,-100.00,North,0,0.0,4.0,18,0.00,,,0.00,meteohub,2013-03-02 00:25:00,
2013-03-01 18:29:00,61.7,17.8,-100.00,WNW,293,2.0,4.0,18,0.00,,,0.00,meteohub,2013-03-02 00:29:00,
2013-03-01 18:33:00,61.5,17.6,-100.00,West,270,3.0,4.0,18,0.00,,,0.00,meteohub,2013-03-02 00:33:00,
2013-03-01 18:37:00,61.2,17.2,-100.00,West,270,4.0,4.0,18,0.00,,,0.00,meteohub,2013-03-02 00:37:00,
2013-03-01 18:41:00,61.0,18.5,-100.00,NNE,23,0.0,4.0,19,0.00,,,0.00,meteohub,2013-03-02 00:41:00,
2013-03-01 18:43:00,60.8,18.3,-100.00,ENE,68,2.0,4.0,19,0.00,,,0.00,meteohub,2013-03-02 00:43:00,
2013-03-01 18:49:00,60.4,18.0,-100.00,NE,45,2.0,4.0,19,0.00,,,0.00,meteohub,2013-03-02 00:49:00,
2013-03-01 18:51:00,60.4,18.0,-100.00,NW,315,0.0,4.0,19,0.00,,,0.00,meteohub,2013-03-02 00:51:00,
2013-03-01 18:55:00,60.1,17.6,-100.00,NW,315,2.0,3.0,19,0.00,,,0.00,meteohub,2013-03-02 00:55:00,
2013-03-01 18:59:00,59.7,17.4,-100.00,West,270,3.0,3.0,19,0.00,,,0.00,meteohub,2013-03-02 00:59:00,
2013-03-01 19:02:00,59.7,17.4,-100.00,WNW,293,2.0,2.0,19,0.00,,,0.00,meteohub,2013-03-02 01:02:00,
2013-03-01 19:04:00,59.7,17.4,-100.00,WNW,293,2.0,2.0,19,0.00,,,0.00,meteohub,2013-03-02 01:04:00,
2013-03-01 19:06:00,59.5,17.2,-100.00,NW,315,2.0,3.0,19,0.00,,,0.00,meteohub,2013-03-02 01:06:00,
2013-03-01 19:10:00,59.5,18.5,-100.00,West,270,1.0,3.0,20,0.00,,,0.00,meteohub,2013-03-02 01:10:00,
2013-03-01 19:12:00,59.4,18.3,-100.00,NW,315,1.0,3.0,20,0.00,,,0.00,meteohub,2013-03-02 01:12:00,
2013-03-01 19:16:00,59.2,18.1,-100.00,West,270,0.0,3.0,20,0.00,,,0.00,meteohub,2013-03-02 01:16:00,
2013-03-01 19:18:00,58.8,17.8,-100.00,West,270,0.0,3.0,20,0.00,,,0.00,meteohub,2013-03-02 01:18:00,
2013-03-01 19:20:00,58.8,17.8,-100.00,NW,315,0.0,3.0,20,0.00,,,0.00,meteohub,2013-03-02 01:20:00,
2013-03-01 19:24:00,58.5,17.6,-100.00,North,0,0.0,2.0,20,0.00,,,0.00,meteohub,2013-03-02 01:24:00,
2013-03-01 19:26:00,58.3,17.4,-100.00,ENE,68,0.0,2.0,20,0.00,,,0.00,meteohub,2013-03-02 01:26:00,
2013-03-01 19:28:00,58.1,17.2,-100.00,WSW,248,0.0,2.0,20,0.00,,,0.00,meteohub,2013-03-02 01:28:00,
2013-03-01 19:30:00,58.1,17.2,-100.00,WSW,248,0.0,2.0,20,0.00,,,0.00,meteohub,2013-03-02 01:30:00,
2013-03-01 19:32:00,57.9,17.1,-100.00,North,0,1.0,2.0,20,0.00,,,0.00,meteohub,2013-03-02 01:32:00,
2013-03-01 19:34:00,57.9,17.1,-100.00,NNW,338,1.0,2.0,20,0.00,,,0.00,meteohub,2013-03-02 01:34:00,
2013-03-01 19:36:00,57.7,18.1,-100.00,WNW,293,3.0,3.0,21,0.00,,,0.00,meteohub,2013-03-02 01:36:00,
2013-03-01 19:40:00,57.6,18.0,-100.00,NW,315,3.0,3.0,21,0.00,,,0.00,meteohub,2013-03-02 01:40:00,
2013-03-01 19:42:00,57.4,17.8,-100.00,NE,45,0.0,3.0,21,0.00,,,0.00,meteohub,2013-03-02 01:42:00,
2013-03-01 19:44:00,57.4,17.8,-100.00,East,90,0.0,3.0,21,0.00,,,0.00,meteohub,2013-03-02 01:44:00,
2013-03-01 19:47:00,57.4,17.8,-100.00,WNW,293,2.0,3.0,21,0.00,,,0.00,meteohub,2013-03-02 01:47:00,
2013-03-01 19:50:00,57.0,17.4,-100.00,West,270,2.0,3.0,21,0.00,,,0.00,meteohub,2013-03-02 01:50:00,
2013-03-01 19:54:00,57.0,17.4,-100.00,WNW,293,2.0,3.0,21,0.00,,,0.00,meteohub,2013-03-02 01:54:00,
2013-03-01 19:56:00,56.8,17.2,-100.00,West,270,1.0,3.0,21,0.00,,,0.00,meteohub,2013-03-02 01:56:00,
2013-03-01 19:58:00,56.8,17.2,-100.00,West,270,0.0,3.0,21,0.00,,,0.00,meteohub,2013-03-02 01:58:00,
2013-03-01 20:02:00,56.8,17.2,-100.00,WNW,293,2.0,2.0,21,0.00,,,0.00,meteohub,2013-03-02 02:02:00,
2013-03-01 20:06:00,56.5,17.1,-100.00,WNW,293,3.0,3.0,21,0.00,,,0.00,meteohub,2013-03-02 02:06:00,
2013-03-01 20:08:00,56.5,17.1,-100.00,WNW,293,3.0,3.0,21,0.00,,,0.00,meteohub,2013-03-02 02:08:00,
2013-03-01 20:10:00,56.5,17.1,-100.00,West,270,2.0,3.0,21,0.00,,,0.00,meteohub,2013-03-02 02:10:00,
2013-03-01 20:12:00,56.5,17.1,-100.00,WNW,293,1.0,3.0,21,0.00,,,0.00,meteohub,2013-03-02 02:12:00,
2013-03-01 20:14:00,56.5,17.1,-100.00,WNW,293,2.0,3.0,21,0.00,,,0.00,meteohub,2013-03-02 02:14:00,
2013-03-01 20:16:00,56.3,16.9,-100.00,WNW,293,1.0,3.0,21,0.00,,,0.00,meteohub,2013-03-02 02:16:00,
2013-03-01 20:17:00,56.3,16.9,-100.00,WNW,293,1.0,3.0,21,0.00,,,0.00,meteohub,2013-03-02 02:17:00,
2013-03-01 20:18:00,56.3,16.9,-100.00,WNW,293,1.0,3.0,21,0.00,,,0.00,meteohub,2013-03-02 02:18:00,
2013-03-01 20:22:00,56.1,16.7,-100.00,West,270,2.0,3.0,21,0.00,,,0.00,meteohub,2013-03-02 02:22:00,
2013-03-01 20:26:00,56.1,16.7,-100.00,NNW,338,2.0,2.0,21,0.00,,,0.00,meteohub,2013-03-02 02:26:00,
2013-03-01 20:30:00,56.1,17.8,-100.00,West,270,2.0,2.0,22,0.00,,,0.00,meteohub,2013-03-02 02:30:00,
2013-03-01 20:34:00,55.9,17.6,-100.00,WNW,293,3.0,3.0,22,0.00,,,0.00,meteohub,2013-03-02 02:34:00,
2013-03-01 20:36:00,55.9,17.6,-100.00,WNW,293,3.0,4.0,22,0.00,,,0.00,meteohub,2013-03-02 02:36:00,
2013-03-01 20:40:00,55.9,17.6,-100.00,WNW,293,3.0,4.0,22,0.00,,,0.00,meteohub,2013-03-02 02:40:00,
2013-03-01 20:46:00,55.8,17.4,-100.00,WSW,248,4.0,4.0,22,0.00,,,0.00,meteohub,2013-03-02 02:46:00,
2013-03-01 20:50:00,55.8,17.4,-100.00,NW,315,2.0,4.0,22,0.00,,,0.00,meteohub,2013-03-02 02:50:00,
2013-03-01 20:52:00,55.6,17.2,-100.00,West,270,5.0,5.0,22,0.00,,,0.00,meteohub,2013-03-02 02:52:00,
2013-03-01 20:56:00,55.6,17.2,-100.00,West,270,3.0,5.0,22,0.00,,,0.00,meteohub,2013-03-02 02:56:00,
2013-03-01 21:00:00,55.6,17.2,-100.00,West,270,2.0,5.0,22,0.00,,,0.00,meteohub,2013-03-02 03:00:00,
2013-03-01 21:02:00,55.6,18.3,-100.00,SW,225,1.0,5.0,23,0.00,,,0.00,meteohub,2013-03-02 03:02:00,
2013-03-01 21:08:00,55.2,18.1,-100.00,NE,45,1.0,5.0,23,0.00,,,0.00,meteohub,2013-03-02 03:08:00,
2013-03-01 21:10:00,55.2,18.1,-100.00,NE,45,4.0,4.0,23,0.00,,,0.00,meteohub,2013-03-02 03:10:00,
2013-03-01 21:12:00,55.2,18.1,-100.00,South,180,0.0,3.0,23,0.00,,,0.00,meteohub,2013-03-02 03:12:00,
2013-03-01 21:14:00,55.2,18.1,-100.00,SSW,203,2.0,3.0,23,0.00,,,0.00,meteohub,2013-03-02 03:14:00,
2013-03-01 21:16:00,55.2,18.1,-100.00,SSW,203,2.0,4.0,23,0.00,,,0.00,meteohub,2013-03-02 03:16:00,
2013-03-01 21:20:00,55.0,18.0,-100.00,NNW,338,1.0,4.0,23,0.00,,,0.00,meteohub,2013-03-02 03:20:00,
2013-03-01 21:24:00,54.7,17.6,-100.00,NE,45,1.0,4.0,23,0.00,,,0.00,meteohub,2013-03-02 03:24:00,
2013-03-01 21:27:00,54.7,17.6,-100.00,NNE,23,2.0,4.0,23,0.00,,,0.00,meteohub,2013-03-02 03:27:00,
2013-03-01 21:31:00,54.3,18.3,-100.00,NE,45,3.0,3.0,24,0.00,,,0.00,meteohub,2013-03-02 03:31:00,
2013-03-01 21:32:00,54.3,18.3,-100.00,NE,45,4.0,4.0,24,0.00,,,0.00,meteohub,2013-03-02 03:32:00,
2013-03-01 21:37:00,54.1,19.0,-100.00,NNE,23,1.0,4.0,25,0.00,,,0.00,meteohub,2013-03-02 03:37:00,
2013-03-01 21:39:00,54.1,19.0,-100.00,SSW,203,2.0,4.0,25,0.00,,,0.00,meteohub,2013-03-02 03:39:00,
2013-03-01 21:43:00,54.0,18.9,-100.00,NE,45,2.0,4.0,25,0.00,,,0.00,meteohub,2013-03-02 03:43:00,
2013-03-01 21:45:00,54.0,18.9,-100.00,NNE,23,2.0,4.0,25,0.00,,,0.00,meteohub,2013-03-02 03:45:00,
2013-03-01 21:47:00,54.0,18.9,-100.00,NNE,23,2.0,4.0,25,0.00,,,0.00,meteohub,2013-03-02 03:47:00,
2013-03-01 21:51:00,53.8,18.9,-100.00,NNW,338,2.0,4.0,25,0.00,,,0.00,meteohub,2013-03-02 03:51:00,
2013-03-01 21:53:00,53.8,19.8,-100.00,NE,45,0.0,4.0,26,0.00,,,0.00,meteohub,2013-03-02 03:53:00,
2013-03-01 21:57:00,53.4,19.4,-100.00,NE,45,0.0,4.0,26,0.00,,,0.00,meteohub,2013-03-02 03:57:00,
2013-03-01 21:59:00,53.4,19.4,-100.00,NNE,23,0.0,4.0,26,0.00,,,0.00,meteohub,2013-03-02 03:59:00,
2013-03-01 22:02:00,53.2,19.2,-100.00,NE,45,4.0,4.0,26,0.00,,,0.00,meteohub,2013-03-02 04:02:00,
2013-03-01 22:03:00,53.2,19.2,-100.00,NE,45,4.0,4.0,26,0.00,,,0.00,meteohub,2013-03-02 04:03:00,
2013-03-01 22:05:00,53.2,19.2,-100.00,NE,45,2.0,4.0,26,0.00,,,0.00,meteohub,2013-03-02 04:05:00,
2013-03-01 22:07:00,53.1,19.9,-100.00,NE,45,2.0,4.0,27,0.00,,,0.00,meteohub,2013-03-02 04:07:00,
2013-03-01 22:11:00,52.9,19.8,-100.00,WNW,293,1.0,4.0,27,0.00,,,0.00,meteohub,2013-03-02 04:11:00,
2013-03-01 22:13:00,52.9,19.8,-100.00,NNW,338,0.0,4.0,27,0.00,,,0.00,meteohub,2013-03-02 04:13:00,
2013-03-01 22:17:00,52.5,19.4,-100.00,North,0,0.0,4.0,27,0.00,,,0.00,meteohub,2013-03-02 04:17:00,
2013-03-01 22:23:00,52.3,19.4,-100.00,NW,315,0.0,2.0,27,0.00,,,0.00,meteohub,2013-03-02 04:23:00,
2013-03-01 22:25:00,52.3,19.4,-100.00,ENE,68,0.0,3.0,27,0.00,,,0.00,meteohub,2013-03-02 04:25:00,
2013-03-01 22:27:00,52.2,20.1,-100.00,WSW,248,0.0,3.0,28,0.00,,,0.00,meteohub,2013-03-02 04:27:00,
2013-03-01 22:29:00,52.2,20.1,-100.00,WSW,248,0.0,3.0,28,0.00,,,0.00,meteohub,2013-03-02 04:29:00,
2013-03-01 22:33:00,52.0,19.9,-100.00,ENE,68,0.0,3.0,28,0.00,,,0.00,meteohub,2013-03-02 04:33:00,
2013-03-01 22:37:00,51.6,19.6,-100.00,NNE,23,3.0,3.0,28,0.00,,,0.00,meteohub,2013-03-02 04:37:00,
2013-03-01 22:39:00,51.6,19.6,-100.00,East,90,2.0,3.0,28,0.00,,,0.00,meteohub,2013-03-02 04:39:00,
2013-03-01 22:43:00,51.4,20.3,-100.00,North,0,0.0,3.0,29,0.00,,,0.00,meteohub,2013-03-02 04:43:00,
2013-03-01 22:47:00,51.3,20.1,-100.00,NE,45,2.0,3.0,29,0.00,,,0.00,meteohub,2013-03-02 04:47:00,
2013-03-01 22:51:00,51.1,19.9,-100.00,ENE,68,1.0,3.0,29,0.00,,,0.00,meteohub,2013-03-02 04:51:00,
2013-03-01 22:55:00,50.7,20.5,-100.00,NE,45,2.0,2.0,30,0.00,,,0.00,meteohub,2013-03-02 04:55:00,
2013-03-01 22:57:00,50.7,20.5,-100.00,NE,45,2.0,2.0,30,0.00,,,0.00,meteohub,2013-03-02 04:57:00,
2013-03-01 22:59:00,50.7,20.5,-100.00,NE,45,3.0,3.0,30,0.00,,,0.00,meteohub,2013-03-02 04:59:00,
2013-03-01 23:01:00,50.7,21.2,-100.00,North,0,5.0,5.0,31,0.00,,,0.00,meteohub,2013-03-02 05:01:00,
2013-03-01 23:02:00,50.5,21.7,-100.00,NE,45,7.0,7.0,32,0.00,,,0.00,meteohub,2013-03-02 05:02:00,
2013-03-01 23:05:00,50.4,21.6,-100.00,ENE,68,4.0,7.0,32,0.00,,,0.00,meteohub,2013-03-02 05:05:00,
2013-03-01 23:07:00,50.2,22.1,-100.00,NNE,23,2.0,7.0,33,0.00,,,0.00,meteohub,2013-03-02 05:07:00,
2013-03-01 23:11:00,50.2,22.1,-100.00,ENE,68,0.0,7.0,33,0.00,,,0.00,meteohub,2013-03-02 05:11:00,
2013-03-01 23:13:00,50.0,22.1,-100.00,ENE,68,1.0,7.0,33,0.00,,,0.00,meteohub,2013-03-02 05:13:00,
2013-03-01 23:15:00,49.8,21.9,-100.00,WNW,293,1.0,7.0,33,0.00,,,0.00,meteohub,2013-03-02 05:15:00,
2013-03-01 23:17:00,49.8,21.9,-100.00,ENE,68,0.0,7.0,33,0.00,,,0.00,meteohub,2013-03-02 05:17:00,
2013-03-01 23:23:00,49.6,22.5,-100.00,NNE,23,2.0,4.0,34,0.00,,,0.00,meteohub,2013-03-02 05:23:00,
2013-03-01 23:25:00,49.6,22.5,-100.00,NNE,23,0.0,2.0,34,0.00,,,0.00,meteohub,2013-03-02 05:25:00,
2013-03-01 23:27:00,49.6,22.5,-100.00,NNE,23,2.0,2.0,34,0.00,,,0.00,meteohub,2013-03-02 05:27:00,
2013-03-01 23:31:00,49.3,22.1,-100.00,North,0,0.0,2.0,34,0.00,,,0.00,meteohub,2013-03-02 05:31:00,
2013-03-01 23:32:00,49.3,22.8,-100.00,NNE,23,0.0,2.0,35,0.00,,,0.00,meteohub,2013-03-02 05:32:00,
2013-03-01 23:33:00,49.3,22.8,-100.00,NNE,23,0.0,2.0,35,0.00,,,0.00,meteohub,2013-03-02 05:33:00,
2013-03-01 23:35:00,49.3,22.8,-100.00,WNW,293,0.0,2.0,35,0.00,,,0.00,meteohub,2013-03-02 05:35:00,
2013-03-01 23:37:00,48.9,22.5,-100.00,NNE,23,0.0,2.0,35,0.00,,,0.00,meteohub,2013-03-02 05:37:00,
2013-03-01 23:39:00,48.9,22.5,-100.00,NNE,23,0.0,2.0,35,0.00,,,0.00,meteohub,2013-03-02 05:39:00,
2013-03-01 23:43:00,48.7,22.3,-100.00,NNW,338,0.0,2.0,35,0.00,,,0.00,meteohub,2013-03-02 05:43:00,
2013-03-01 23:45:00,48.7,22.3,-100.00,NNE,23,2.0,0.0,35,0.00,,,0.00,meteohub,2013-03-02 05:45:00,
2013-03-01 23:47:00,48.7,22.3,-100.00,NNE,23,2.0,0.0,35,0.00,,,0.00,meteohub,2013-03-02 05:47:00,
2013-03-01 23:49:00,48.6,22.8,-100.00,WNW,293,0.0,0.0,36,0.00,,,0.00,meteohub,2013-03-02 05:49:00,
2013-03-01 23:53:00,48.4,22.6,-100.00,NNE,23,0.0,2.0,36,0.00,,,0.00,meteohub,2013-03-02 05:53:00,
2013-03-01 23:55:00,48.2,22.5,-100.00,NNE,23,0.0,2.0,36,0.00,,,0.00,meteohub,2013-03-02 05:55:00,
2013-03-01 23:59:00,48.0,22.3,-100.00,SE,135,0.0,2.0,36,0.00,,,0.00,meteohub,2013-03-02 05:59:00,